START_TIME,STEP,MOV.,A46,t_acc.,A13,t_acc.,M47,t_acc.,A17,t_acc.,A28,t_acc.,M38,t_acc.
1979-07-28 09:00:24.690 ,0,0,,0,6.,4.8,0.,4.8,,0,1.,4.8,5.,4.8
1979-07-28 09:00:29.490 ,0,0,,0,6.,4.8,1.,4.8,,0,0.,4.8,6.,4.8
1979-07-28 09:00:34.290 ,0,0,,0,4.,4.8,0.,4.8,,0,0.,4.8,4.,4.8
1979-07-28 09:00:39.090 ,0,0,,0,0.,4.8,0.,4.8,,0,0.,4.8,4.,4.8
1979-07-28 09:00:43.890 ,0,0,,0,0.,4.8,0.,4.8,,0,0.,4.8,6.,4.8
1979-07-28 09:00:48.690 ,0,0,,0,0.,4.8,0.,4.8,,0,0.,4.8,5.,4.8
1979-07-28 09:00:53.490 ,0,0,,0,0.,4.8,0.,4.8,,0,0.,4.8,5.,4.8
1979-07-28 09:00:58.290 ,0,0,,0,1.,4.8,0.,4.8,,0,0.,4.8,1.,4.8
1979-07-28 09:01:03.090 ,0,0,,0,7.,4.8,0.,4.8,,0,0.,4.8,5.,4.8
1979-07-28 09:01:07.890 ,0,0,,0,10.,4.8,0.,4.8,,0,0.,4.8,2.,4.8
1979-07-28 09:01:12.690 ,0,0,,0,9.,4.8,1.,4.8,,0,0.,4.8,4.,4.8
1979-07-28 09:01:17.490 ,0,0,,0,6.,4.8,0.,4.8,,0,0.,4.8,6.,4.8
1979-07-28 09:01:22.290 ,0,0,,0,3.,4.8,0.,4.8,,0,0.,4.8,5.,4.8
1979-07-28 09:01:27.090 ,0,0,,0,0.,4.8,0.,4.8,,0,0.,4.8,2.,4.8
1979-07-28 09:01:31.890 ,0,0,,0,0.,4.8,0.,4.8,,0,0.,4.8,6.,4.8
1979-07-28 09:01:36.690 ,1,0,,0,0.,4.8,0.,4.8,,0,0.,4.8,1.,4.8
1979-07-28 09:01:41.490 ,1,0,,0,0.,4.8,0.,4.8,,0,0.,4.8,1.,4.8
1979-07-28 09:01:46.290 ,1,0,,0,0.,4.8,0.,4.8,,0,0.,4.8,1.,4.8
1979-07-28 09:01:51.090 ,1,0,,0,11.,4.8,2.,4.8,,0,0.,4.8,2.,4.8
1979-07-28 09:01:55.890 ,1,0,,0,11.,4.8,0.,4.8,,0,0.,4.8,4.,4.8
1979-07-28 09:02:00.690 ,1,0,,0,6.,4.8,0.,4.8,,0,0.,4.8,6.,4.8
1979-07-28 09:02:05.490 ,1,0,,0,9.,4.8,0.,4.8,,0,0.,4.8,8.,4.8
1979-07-28 09:02:10.290 ,1,0,,0,7.,4.8,0.,4.8,,0,0.,4.8,2.,4.8
1979-07-28 09:02:15.090 ,1,0,,0,1.,4.8,0.,4.8,,0,0.,4.8,5.,4.8
1979-07-28 09:02:19.890 ,1,0,,0,0.,4.8,0.,4.8,,0,0.,4.8,3.,4.8
1979-07-28 09:02:24.690 ,2,0,,0,0.,4.8,0.,4.8,,0,0.,4.8,1.,4.8
1979-07-28 09:02:29.490 ,2,0,,0,0.,4.8,0.,4.8,,0,0.,4.8,2.,4.8
1979-07-28 09:02:34.290 ,2,0,,0,1.,4.8,0.,4.8,,0,0.,4.8,3.,4.8
1979-07-28 09:02:39.090 ,2,0,,0,3.,4.8,1.,4.8,,0,0.,4.8,0.,4.8
1979-07-28 09:02:43.890 ,2,0,,0,2.,4.8,0.,4.8,,0,0.,4.8,2.,4.8
1979-07-28 09:02:48.690 ,2,0,,0,5.,4.8,1.,4.8,,0,0.,4.8,2.,4.8
1979-07-28 09:02:53.490 ,2,0,,0,5.,4.8,0.,4.8,,0,0.,4.8,4.,4.8
1979-07-28 09:02:58.290 ,2,0,,0,12.,4.8,1.,4.8,,0,0.,4.8,1.,4.8
1979-07-28 09:03:03.090 ,2,0,,0,0.,4.8,0.,4.8,,0,0.,4.8,3.,4.8
1979-07-28 09:03:07.890 ,2,0,,0,0.,4.8,0.,4.8,,0,0.,4.8,4.,4.8
1979-07-28 09:03:12.690 ,3,0,,0,0.,4.8,0.,4.8,,0,0.,4.8,3.,4.8
1979-07-28 09:03:17.490 ,3,0,,0,0.,4.8,0.,4.8,,0,0.,4.8,0.,4.8
1979-07-28 09:03:22.290 ,3,0,,0,1.,4.8,0.,4.8,,0,0.,4.8,3.,4.8
1979-07-28 09:03:27.090 ,3,0,,0,5.,4.8,1.,4.8,,0,0.,4.8,0.,4.8
1979-07-28 09:03:31.890 ,3,0,,0,4.,4.8,1.,4.8,,0,0.,4.8,2.,4.8
1979-07-28 09:03:36.690 ,3,0,,0,5.,4.8,1.,4.8,,0,0.,4.8,2.,4.8
1979-07-28 09:03:41.490 ,3,0,,0,12.,4.8,1.,4.8,,0,0.,4.8,2.,4.8
1979-07-28 09:03:46.290 ,3,0,,0,9.,4.8,1.,4.8,,0,0.,4.8,1.,4.8
1979-07-28 09:03:51.090 ,3,0,,0,0.,4.8,0.,4.8,,0,0.,4.8,3.,4.8
1979-07-28 09:03:55.890 ,3,0,,0,0.,4.8,0.,4.8,,0,0.,4.8,4.,4.8
1979-07-28 09:04:00.690 ,4,0,,0,0.,4.8,0.,4.8,,0,0.,4.8,2.,4.8
1979-07-28 09:04:05.490 ,4,0,,0,0.,4.8,0.,4.8,,0,0.,4.8,1.,4.8
1979-07-28 09:04:10.290 ,4,0,,0,1.,4.8,0.,4.8,,0,0.,4.8,0.,4.8
1979-07-28 09:04:15.090 ,4,0,,0,6.,4.8,0.,4.8,,0,0.,4.8,2.,4.8
1979-07-28 09:04:19.890 ,4,0,,0,6.,4.8,0.,4.8,,0,0.,4.8,3.,4.8
1979-07-28 09:04:24.690 ,4,0,,0,2.,4.8,0.,4.8,,0,0.,4.8,2.,4.8
1979-07-28 09:04:29.490 ,4,0,,0,10.,4.8,0.,4.8,,0,0.,4.8,1.,4.8
1979-07-28 09:04:34.290 ,4,0,,0,6.,4.8,0.,4.8,,0,0.,4.8,2.,4.8
1979-07-28 09:04:39.090 ,4,0,,0,0.,4.8,0.,4.8,,0,1.,4.8,0.,4.8
1979-07-28 09:04:43.890 ,4,0,,0,0.,4.8,0.,4.8,,0,0.,4.8,2.,4.8
1979-07-28 09:04:48.690 ,5,0,,0,0.,4.8,0.,4.8,,0,0.,4.8,0.,4.8
1979-07-28 09:04:53.490 ,5,0,,0,0.,4.8,0.,4.8,,0,0.,4.8,3.,4.8
1979-07-28 09:04:58.290 ,5,0,,0,0.,4.8,0.,4.8,,0,0.,4.8,1.,4.8
1979-07-28 09:05:03.090 ,5,0,,0,9.,4.8,1.,4.8,,0,0.,4.8,0.,4.8
1979-07-28 09:05:07.890 ,5,0,,0,5.,4.8,0.,4.8,,0,0.,4.8,0.,4.8
1979-07-28 09:05:12.690 ,5,0,,0,6.,4.8,0.,4.8,,0,0.,4.8,1.,4.8
1979-07-28 09:05:17.490 ,5,0,,0,6.,4.8,0.,4.8,,0,0.,4.8,1.,4.8
1979-07-28 09:05:22.290 ,5,0,,0,9.,4.8,0.,4.8,,0,0.,4.8,0.,4.8
1979-07-28 09:05:27.090 ,5,0,,0,0.,4.8,0.,4.8,,0,0.,4.8,4.,4.8
1979-07-28 09:05:31.890 ,5,0,,0,0.,4.8,0.,4.8,,0,0.,4.8,1.,4.8
1979-07-28 09:05:36.690 ,6,0,,0,0.,4.8,0.,4.8,,0,0.,4.8,4.,4.8
1979-07-28 09:05:41.490 ,6,0,,0,0.,4.8,0.,4.8,,0,0.,4.8,0.,4.8
1979-07-28 09:05:46.290 ,6,0,,0,2.,4.8,0.,4.8,,0,0.,4.8,3.,4.8
1979-07-28 09:05:51.090 ,6,0,,0,10.,4.8,0.,4.8,,0,0.,4.8,8.,4.8
1979-07-28 09:05:55.890 ,6,0,,0,15.,4.8,1.,4.8,,0,0.,4.8,3.,4.8
1979-07-28 09:06:00.690 ,6,0,,0,12.,4.8,1.,4.8,,0,0.,4.8,2.,4.8
1979-07-28 09:06:05.490 ,6,0,,0,7.,4.8,0.,4.8,,0,0.,4.8,0.,4.8
1979-07-28 09:06:10.290 ,6,0,,0,8.,4.8,0.,4.8,,0,0.,4.8,5.,4.8
1979-07-28 09:06:15.090 ,6,0,,0,0.,4.8,0.,4.8,,0,0.,4.8,2.,4.8
1979-07-28 09:06:19.890 ,6,0,,0,0.,4.8,0.,4.8,,0,0.,4.8,5.,4.8
1979-07-28 09:06:24.690 ,7,0,,0,0.,4.8,0.,4.8,,0,0.,4.8,2.,4.8
1979-07-28 09:06:29.490 ,7,0,,0,0.,4.8,0.,4.8,,0,0.,4.8,5.,4.8
1979-07-28 09:06:34.290 ,7,0,,0,1.,4.8,0.,4.8,,0,0.,4.8,0.,4.8
1979-07-28 09:06:39.090 ,7,0,,0,21.,4.8,0.,4.8,,0,0.,4.8,0.,4.8
1979-07-28 09:06:43.890 ,7,0,,0,13.,4.8,0.,4.8,,0,0.,4.8,0.,4.8
1979-07-28 09:06:48.690 ,7,0,,0,11.,4.8,0.,4.8,,0,0.,4.8,0.,4.8
1979-07-28 09:06:53.490 ,7,0,,0,4.,4.8,0.,4.8,,0,0.,4.8,0.,4.8
1979-07-28 09:06:58.290 ,7,0,,0,9.,4.8,0.,4.8,,0,0.,4.8,0.,4.8
1979-07-28 09:07:03.090 ,7,0,,0,0.,4.8,0.,4.8,,0,0.,4.8,0.,4.8
1979-07-28 09:07:07.890 ,7,0,,0,0.,4.8,0.,4.8,,0,0.,4.8,0.,4.8
1979-07-28 09:07:12.690 ,3,1,,0,0.,4.8,0.,4.8,,0,0.,4.8,2.,4.8
1979-07-28 09:07:17.490 ,3,1,,0,1.,4.8,0.,4.8,,0,0.,4.8,2.,4.8
1979-07-28 09:07:22.290 ,3,1,,0,1.,4.8,0.,4.8,,0,0.,4.8,1.,4.8
1979-07-28 09:07:27.090 ,3,1,,0,9.,4.8,0.,4.8,,0,0.,4.8,2.,4.8
1979-07-28 09:07:31.890 ,3,1,,0,4.,4.8,1.,4.8,,0,0.,4.8,5.,4.8
1979-07-28 09:07:36.690 ,0,1,,0,4.,4.8,0.,4.8,,0,0.,4.8,1.,4.8
1979-07-28 09:07:41.490 ,0,1,,0,12.,4.8,0.,4.8,,0,0.,4.8,2.,4.8
1979-07-28 09:07:46.290 ,0,1,,0,11.,4.8,0.,4.8,,0,0.,4.8,4.,4.8
1979-07-28 09:07:51.090 ,0,1,,0,0.,4.8,0.,4.8,,0,0.,4.8,2.,4.8
1979-07-28 09:07:55.890 ,0,1,,0,0.,4.8,0.,4.8,,0,0.,4.8,5.,4.8
1979-07-28 09:08:00.690 ,4,1,,0,0.,4.8,0.,4.8,,0,0.,4.8,1.,4.8
1979-07-28 09:08:05.490 ,4,1,,0,0.,4.8,0.,4.8,,0,0.,4.8,4.,4.8
1979-07-28 09:08:10.290 ,4,1,,0,2.,4.8,0.,4.8,,0,0.,4.8,1.,4.8
1979-07-28 09:08:15.090 ,4,1,,0,12.,4.8,0.,4.8,,0,0.,4.8,4.,4.8
1979-07-28 09:08:19.890 ,4,1,,0,8.,4.8,1.,4.8,,0,0.,4.8,2.,4.8
1979-07-28 09:08:24.690 ,7,1,,0,7.,4.8,1.,4.8,,0,0.,4.8,1.,4.8
1979-07-28 09:08:29.490 ,7,1,,0,8.,4.8,0.,4.8,,0,0.,4.8,1.,4.8
1979-07-28 09:08:34.290 ,7,1,,0,7.,4.8,0.,4.8,,0,0.,4.8,5.,4.8
1979-07-28 09:08:39.090 ,7,1,,0,0.,4.8,0.,4.8,,0,0.,4.8,1.,4.8
1979-07-28 09:08:43.890 ,7,1,,0,0.,4.8,0.,4.8,,0,0.,4.8,0.,4.8
1979-07-28 09:08:48.690 ,3,1,,0,0.,4.8,0.,4.8,,0,0.,4.8,0.,4.8
1979-07-28 09:08:53.490 ,3,1,,0,0.,4.8,0.,4.8,,0,0.,4.8,2.,4.8
1979-07-28 09:08:58.290 ,3,1,,0,1.,4.8,0.,4.8,,0,0.,4.8,1.,4.8
1979-07-28 09:09:03.090 ,3,1,,0,6.,4.8,1.,4.8,,0,0.,4.8,2.,4.8
1979-07-28 09:09:07.890 ,3,1,,0,8.,4.8,0.,4.8,,0,0.,4.8,3.,4.8
1979-07-28 09:09:12.690 ,0,1,,0,2.,4.8,0.,4.8,,0,0.,4.8,3.,4.8
1979-07-28 09:09:17.490 ,0,1,,0,11.,4.8,2.,4.8,,0,0.,4.8,1.,4.8
1979-07-28 09:09:22.290 ,0,1,,0,8.,4.8,0.,4.8,,0,0.,4.8,3.,4.8
1979-07-28 09:09:27.090 ,0,1,,0,0.,4.8,0.,4.8,,0,0.,4.8,3.,4.8
1979-07-28 09:09:31.890 ,0,1,,0,0.,4.8,0.,4.8,,0,0.,4.8,0.,4.8
1979-07-28 09:09:36.690 ,4,1,,0,0.,4.8,0.,4.8,,0,0.,4.8,4.,4.8
1979-07-28 09:09:41.490 ,4,1,,0,0.,4.8,0.,4.8,,0,0.,4.8,4.,4.8
1979-07-28 09:09:46.290 ,4,1,,0,2.,4.8,0.,4.8,,0,0.,4.8,2.,4.8
1979-07-28 09:09:51.090 ,4,1,,0,9.,4.8,0.,4.8,,0,0.,4.8,2.,4.8
1979-07-28 09:09:55.890 ,4,1,,0,7.,4.8,1.,4.8,,0,0.,4.8,4.,4.8
1979-07-28 09:10:00.690 ,7,1,,0,3.,4.8,0.,4.8,,0,0.,4.8,1.,4.8
1979-07-28 09:10:05.490 ,7,1,,0,8.,4.8,1.,4.8,,0,0.,4.8,1.,4.8
1979-07-28 09:10:10.290 ,7,1,,0,4.,4.8,0.,4.8,,0,0.,4.8,2.,4.8
1979-07-28 09:10:15.090 ,7,1,,0,0.,4.8,0.,4.8,,0,0.,4.8,0.,4.8
1979-07-28 09:10:19.890 ,7,1,,0,0.,4.8,0.,4.8,,0,0.,4.8,0.,4.8
1979-07-28 09:10:24.690 ,3,1,,0,0.,4.8,0.,4.8,,0,0.,4.8,0.,4.8
1979-07-28 09:10:29.490 ,3,1,,0,0.,4.8,0.,4.8,,0,0.,4.8,1.,4.8
1979-07-28 09:10:34.290 ,3,1,,0,0.,4.8,0.,4.8,,0,0.,4.8,0.,4.8
1979-07-28 09:10:39.090 ,3,1,,0,4.,4.8,0.,4.8,,0,0.,4.8,1.,4.8
1979-07-28 09:10:43.890 ,3,1,,0,6.,4.8,0.,4.8,,0,1.,4.8,2.,4.8
1979-07-28 09:10:48.690 ,0,1,,0,8.,4.8,1.,4.8,,0,0.,4.8,2.,4.8
1979-07-28 09:10:53.490 ,0,1,,0,6.,4.8,0.,4.8,,0,0.,4.8,2.,4.8
1979-07-28 09:10:58.290 ,0,1,,0,3.,4.8,0.,4.8,,0,0.,4.8,8.,4.8
1979-07-28 09:11:03.090 ,0,1,,0,0.,4.8,0.,4.8,,0,0.,4.8,2.,4.8
1979-07-28 09:11:07.890 ,0,1,,0,0.,4.8,0.,4.8,,0,0.,4.8,6.,4.8
1979-07-28 09:11:12.690 ,4,1,,0,0.,4.8,0.,4.8,,0,0.,4.8,3.,4.8
1979-07-28 09:11:17.490 ,4,1,,0,0.,4.8,0.,4.8,,0,0.,4.8,3.,4.8
1979-07-28 09:11:22.290 ,4,1,,0,0.,4.8,0.,4.8,,0,0.,4.8,0.,4.8
1979-07-28 09:11:27.090 ,4,1,,0,8.,4.8,0.,4.8,,0,0.,4.8,0.,4.8
1979-07-28 09:11:31.890 ,4,1,,0,7.,4.8,0.,4.8,,0,0.,4.8,1.,4.8
1979-07-28 09:11:36.690 ,7,1,,0,3.,4.8,0.,4.8,,0,0.,4.8,1.,4.8
1979-07-28 09:11:41.490 ,7,1,,0,9.,4.8,1.,4.8,,0,0.,4.8,1.,4.8
1979-07-28 09:11:46.290 ,7,1,,0,5.,4.8,0.,4.8,,0,0.,4.8,2.,4.8
1979-07-28 09:11:51.090 ,7,1,,0,0.,4.8,0.,4.8,,0,0.,4.8,0.,4.8
1979-07-28 09:11:55.890 ,7,1,,0,0.,4.8,0.,4.8,,0,0.,4.8,0.,4.8
1979-07-28 09:12:00.690 ,3,1,,0,0.,4.8,0.,4.8,,0,0.,4.8,1.,4.8
1979-07-28 09:12:05.490 ,3,1,,0,1.,4.8,0.,4.8,,0,0.,4.8,4.,4.8
1979-07-28 09:12:10.290 ,3,1,,0,3.,4.8,1.,4.8,,0,0.,4.8,1.,4.8
1979-07-28 09:12:15.090 ,3,1,,0,4.,4.8,0.,4.8,,0,0.,4.8,1.,4.8
1979-07-28 09:12:19.890 ,3,1,,0,7.,4.8,1.,4.8,,0,0.,4.8,1.,4.8
1979-07-28 09:12:24.690 ,0,1,,0,6.,4.8,1.,4.8,,0,0.,4.8,2.,4.8
1979-07-28 09:12:29.490 ,0,1,,0,11.,4.8,0.,4.8,,0,0.,4.8,2.,4.8
1979-07-28 09:12:34.290 ,0,1,,0,8.,4.8,0.,4.8,,0,0.,4.8,2.,4.8
1979-07-28 09:12:39.090 ,0,1,,0,0.,4.8,0.,4.8,,0,0.,4.8,3.,4.8
1979-07-28 09:12:43.890 ,0,1,,0,0.,4.8,1.,4.8,,0,0.,4.8,8.,4.8
1979-07-28 09:12:48.690 ,4,1,,0,0.,4.8,0.,4.8,,0,0.,4.8,4.,4.8
1979-07-28 09:12:53.490 ,4,1,,0,0.,4.8,0.,4.8,,0,0.,4.8,3.,4.8
1979-07-28 09:12:58.290 ,4,1,,0,1.,4.8,0.,4.8,,0,0.,4.8,2.,4.8
1979-07-28 09:13:03.090 ,4,1,,0,7.,4.8,0.,4.8,,0,0.,4.8,6.,4.8
1979-07-28 09:13:07.890 ,4,1,,0,4.,4.8,0.,4.8,,0,0.,4.8,3.,4.8
1979-07-28 09:13:12.690 ,7,1,,0,8.,4.8,0.,4.8,,0,0.,4.8,2.,4.8
1979-07-28 09:13:17.490 ,7,1,,0,9.,4.8,0.,4.8,,0,0.,4.8,1.,4.8
1979-07-28 09:13:22.290 ,7,1,,0,8.,4.8,1.,4.8,,0,0.,4.8,2.,4.8
1979-07-28 09:13:27.090 ,7,1,,0,0.,4.8,0.,4.8,,0,0.,4.8,0.,4.8
1979-07-28 09:13:31.890 ,7,1,,0,0.,4.8,0.,4.8,,0,0.,4.8,0.,4.8
1979-07-28 09:13:36.690 ,3,1,,0,0.,4.8,0.,4.8,,0,0.,4.8,3.,4.8
1979-07-28 09:13:41.490 ,3,1,,0,0.,4.8,0.,4.8,,0,0.,4.8,4.,4.8
1979-07-28 09:13:46.290 ,3,1,,0,1.,4.8,0.,4.8,,0,0.,4.8,5.,4.8
1979-07-28 09:13:51.090 ,3,1,,0,12.,4.8,0.,4.8,,0,0.,4.8,3.,4.8
1979-07-28 09:13:55.890 ,3,1,,0,6.,4.8,0.,4.8,,0,0.,4.8,0.,4.8
1979-07-28 09:14:00.690 ,0,1,,0,11.,4.8,1.,4.8,,0,0.,4.8,0.,4.8
1979-07-28 09:14:05.490 ,0,1,,0,13.,4.8,0.,4.8,,0,0.,4.8,2.,4.8
1979-07-28 09:14:10.290 ,0,1,,0,12.,4.8,1.,4.8,,0,0.,4.8,4.,4.8
1979-07-28 09:14:15.090 ,0,1,,0,0.,4.8,0.,4.8,,0,0.,4.8,5.,4.8
1979-07-28 09:14:19.890 ,0,1,,0,0.,4.8,0.,4.8,,0,0.,4.8,4.,4.8
1979-07-28 09:14:24.690 ,4,1,,0,0.,4.8,0.,4.8,,0,1.,4.8,2.,4.8
1979-07-28 09:14:29.490 ,4,1,,0,0.,4.8,0.,4.8,,0,0.,4.8,4.,4.8
1979-07-28 09:14:34.290 ,4,1,,0,4.,4.8,0.,4.8,,0,0.,4.8,1.,4.8
1979-07-28 09:14:39.090 ,4,1,,0,11.,4.8,0.,4.8,,0,0.,4.8,1.,4.8
1979-07-28 09:14:43.890 ,4,1,,0,11.,4.8,1.,4.8,,0,0.,4.8,3.,4.8
1979-07-28 09:14:48.690 ,7,1,,0,3.,4.8,1.,4.8,,0,0.,4.8,3.,4.8
1979-07-28 09:14:53.490 ,7,1,,0,8.,4.8,0.,4.8,,0,0.,4.8,2.,4.8
1979-07-28 09:14:58.290 ,7,1,,0,4.,4.8,0.,4.8,,0,0.,4.8,2.,4.8
1979-07-28 09:15:03.090 ,7,1,,0,0.,4.8,0.,4.8,,0,0.,4.8,0.,4.8
1979-07-28 09:15:07.890 ,7,1,,0,0.,4.8,0.,4.8,,0,0.,4.8,0.,4.8
1979-07-28 09:15:12.690 ,3,1,,0,1.,4.8,0.,4.8,,0,0.,4.8,2.,4.8
1979-07-28 09:15:17.490 ,3,1,,0,0.,4.8,0.,4.8,,0,0.,4.8,2.,4.8
1979-07-28 09:15:22.290 ,3,1,,0,1.,4.8,0.,4.8,,0,0.,4.8,2.,4.8
1979-07-28 09:15:27.090 ,3,1,,0,7.,4.8,0.,4.8,,0,0.,4.8,3.,4.8
1979-07-28 09:15:31.890 ,3,1,,0,7.,4.8,2.,4.8,,0,0.,4.8,0.,4.8
1979-07-28 09:15:36.690 ,0,1,,0,7.,4.8,2.,4.8,,0,0.,4.8,4.,4.8
1979-07-28 09:15:41.490 ,0,1,,0,11.,4.8,1.,4.8,,0,0.,4.8,3.,4.8
1979-07-28 09:15:46.290 ,0,1,,0,10.,4.8,0.,4.8,,0,0.,4.8,5.,4.8
1979-07-28 09:15:51.090 ,0,1,,0,0.,4.8,0.,4.8,,0,0.,4.8,4.,4.8
1979-07-28 09:15:55.890 ,0,1,,0,0.,4.8,0.,4.8,,0,1.,4.8,2.,4.8
1979-07-28 09:16:00.690 ,4,1,,0,0.,4.8,0.,4.8,,0,0.,4.8,7.,4.8
1979-07-28 09:16:05.490 ,4,1,,0,0.,4.8,0.,4.8,,0,0.,4.8,5.,4.8
1979-07-28 09:16:10.290 ,4,1,,0,3.,4.8,0.,4.8,,0,0.,4.8,1.,4.8
1979-07-28 09:16:15.090 ,4,1,,0,11.,4.8,1.,4.8,,0,0.,4.8,6.,4.8
1979-07-28 09:16:19.890 ,4,1,,0,5.,4.8,0.,4.8,,0,0.,4.8,5.,4.8
1979-07-28 09:16:24.690 ,7,1,,0,3.,4.8,0.,4.8,,0,0.,4.8,4.,4.8
1979-07-28 09:16:29.490 ,7,1,,0,6.,4.8,0.,4.8,,0,0.,4.8,2.,4.8
1979-07-28 09:16:34.290 ,7,1,,0,13.,4.8,1.,4.8,,0,0.,4.8,7.,4.8
1979-07-28 09:16:39.090 ,7,1,,0,0.,4.8,0.,4.8,,0,0.,4.8,0.,4.8
1979-07-28 09:16:43.890 ,7,1,,0,0.,4.8,0.,4.8,,0,0.,4.8,0.,4.8
1979-07-28 09:16:48.690 ,3,1,,0,0.,4.8,0.,4.8,,0,0.,4.8,3.,4.8
1979-07-28 09:16:53.490 ,3,1,,0,0.,4.8,0.,4.8,,0,0.,4.8,1.,4.8
1979-07-28 09:16:58.290 ,3,1,,0,2.,4.8,0.,4.8,,0,0.,4.8,1.,4.8
1979-07-28 09:17:03.090 ,3,1,,0,6.,4.8,1.,4.8,,0,0.,4.8,2.,4.8
1979-07-28 09:17:07.890 ,3,1,,0,9.,4.8,0.,4.8,,0,0.,4.8,2.,4.8
1979-07-28 09:17:12.690 ,0,1,,0,7.,4.8,3.,4.8,,0,0.,4.8,5.,4.8
1979-07-28 09:17:17.490 ,0,1,,0,8.,4.8,0.,4.8,,0,0.,4.8,4.,4.8
1979-07-28 09:17:22.290 ,0,1,,0,5.,4.8,0.,4.8,,0,0.,4.8,3.,4.8
1979-07-28 09:17:27.090 ,0,1,,0,0.,4.8,0.,4.8,,0,0.,4.8,4.,4.8
1979-07-28 09:17:31.890 ,0,1,,0,0.,4.8,0.,4.8,,0,0.,4.8,2.,4.8
1979-07-28 09:17:36.690 ,0,0,,0,0.,4.8,0.,4.8,,0,0.,4.8,3.,4.8
1979-07-28 09:17:41.490 ,0,0,,0,0.,4.8,0.,4.8,,0,0.,4.8,4.,4.8
1979-07-28 09:17:46.290 ,0,0,,0,3.,4.8,0.,4.8,,0,0.,4.8,0.,4.8
1979-07-28 09:17:51.090 ,0,0,,0,5.,4.8,0.,4.8,,0,0.,4.8,6.,4.8
1979-07-28 09:17:55.890 ,0,0,,0,7.,4.8,0.,4.8,,0,0.,4.8,1.,4.8
1979-07-28 09:18:00.690 ,0,0,,0,4.,4.8,1.,4.8,,0,0.,4.8,1.,4.8
1979-07-28 09:18:05.490 ,0,0,,0,6.,4.8,0.,4.8,,0,1.,4.8,2.,4.8
1979-07-28 09:18:10.290 ,0,0,,0,3.,4.8,0.,4.8,,0,0.,4.8,1.,4.8
1979-07-28 09:18:15.090 ,0,0,,0,0.,4.8,0.,4.8,,0,0.,4.8,0.,4.8
1979-07-28 09:18:19.890 ,0,0,,0,0.,4.8,0.,4.8,,0,0.,4.8,0.,4.8
1979-07-28 09:18:24.690 ,5,0,,0,0.,4.8,0.,4.8,,0,0.,4.8,1.,4.8
1979-07-28 09:18:29.490 ,5,0,,0,0.,4.8,0.,4.8,,0,0.,4.8,3.,4.8
1979-07-28 09:18:34.290 ,5,0,,0,2.,4.8,1.,4.8,,0,0.,4.8,1.,4.8
1979-07-28 09:18:39.090 ,5,0,,0,3.,4.8,0.,4.8,,0,0.,4.8,3.,4.8
1979-07-28 09:18:43.890 ,5,0,,0,5.,4.8,0.,4.8,,0,0.,4.8,1.,4.8
1979-07-28 09:18:48.690 ,5,0,,0,9.,4.8,0.,4.8,,0,0.,4.8,2.,4.8
1979-07-28 09:18:53.490 ,5,0,,0,7.,4.8,0.,4.8,,0,0.,4.8,2.,4.8
1979-07-28 09:18:58.290 ,5,0,,0,6.,4.8,0.,4.8,,0,0.,4.8,4.,4.8
1979-07-28 09:19:03.090 ,5,0,,0,0.,4.8,0.,4.8,,0,0.,4.8,0.,4.8
1979-07-28 09:19:07.890 ,5,0,,0,0.,4.8,0.,4.8,,0,0.,4.8,3.,4.8
1979-07-28 09:19:12.690 ,4,0,,0,0.,4.8,0.,4.8,,0,0.,4.8,2.,4.8
1979-07-28 09:19:17.490 ,4,0,,0,0.,4.8,0.,4.8,,0,0.,4.8,2.,4.8
1979-07-28 09:19:22.290 ,4,0,,0,0.,4.8,0.,4.8,,0,0.,4.8,1.,4.8
1979-07-28 09:19:27.090 ,4,0,,0,6.,4.8,0.,4.8,,0,0.,4.8,5.,4.8
1979-07-28 09:19:31.890 ,4,0,,0,12.,4.8,0.,4.8,,0,0.,4.8,4.,4.8
1979-07-28 09:19:36.690 ,4,0,,0,8.,4.8,1.,4.8,,0,0.,4.8,3.,4.8
1979-07-28 09:19:41.490 ,4,0,,0,14.,4.8,0.,4.8,,0,0.,4.8,7.,4.8
1979-07-28 09:19:46.290 ,4,0,,0,6.,4.8,0.,4.8,,0,0.,4.8,1.,4.8
1979-07-28 09:19:51.090 ,4,0,,0,0.,4.8,0.,4.8,,0,0.,4.8,2.,4.8
1979-07-28 09:19:55.890 ,4,0,,0,0.,4.8,0.,4.8,,0,0.,4.8,2.,4.8
1979-07-28 09:20:00.690 ,3,0,,0,0.,4.8,0.,4.8,,0,0.,4.8,1.,4.8
1979-07-28 09:20:05.490 ,3,0,,0,0.,4.8,0.,4.8,,0,0.,4.8,3.,4.8
1979-07-28 09:20:10.290 ,3,0,,0,2.,4.8,0.,4.8,,0,0.,4.8,2.,4.8
1979-07-28 09:20:15.090 ,3,0,,0,8.,4.8,0.,4.8,,0,0.,4.8,2.,4.8
1979-07-28 09:20:19.890 ,3,0,,0,6.,4.8,0.,4.8,,0,0.,4.8,3.,4.8
1979-07-28 09:20:24.690 ,3,0,,0,9.,4.8,0.,4.8,,0,0.,4.8,2.,4.8
1979-07-28 09:20:29.490 ,3,0,,0,3.,4.8,0.,4.8,,0,0.,4.8,2.,4.8
1979-07-28 09:20:34.290 ,3,0,,0,6.,4.8,1.,4.8,,0,0.,4.8,5.,4.8
1979-07-28 09:20:39.090 ,3,0,,0,0.,4.8,0.,4.8,,0,0.,4.8,3.,4.8
1979-07-28 09:20:43.890 ,3,0,,0,0.,4.8,0.,4.8,,0,1.,4.8,1.,4.8
1979-07-28 09:20:48.690 ,2,0,,0,0.,4.8,0.,4.8,,0,0.,4.8,3.,4.8
1979-07-28 09:20:53.490 ,2,0,,0,0.,4.8,0.,4.8,,0,0.,4.8,2.,4.8
1979-07-28 09:20:58.290 ,2,0,,0,2.,4.8,1.,4.8,,0,0.,4.8,4.,4.8
1979-07-28 09:21:03.090 ,2,0,,0,12.,4.8,0.,4.8,,0,1.,4.8,2.,4.8
1979-07-28 09:21:07.890 ,2,0,,0,7.,4.8,0.,4.8,,0,1.,4.8,1.,4.8
1979-07-28 09:21:12.690 ,2,0,,0,7.,4.8,0.,4.8,,0,0.,4.8,4.,4.8
1979-07-28 09:21:17.490 ,2,0,,0,6.,4.8,1.,4.8,,0,0.,4.8,4.,4.8
1979-07-28 09:21:22.290 ,2,0,,0,5.,4.8,0.,4.8,,0,0.,4.8,5.,4.8
1979-07-28 09:21:27.090 ,2,0,,0,0.,4.8,0.,4.8,,0,0.,4.8,1.,4.8
1979-07-28 09:21:31.890 ,2,0,,0,0.,4.8,0.,4.8,,0,0.,4.8,2.,4.8
1979-07-28 09:21:36.690 ,1,0,,0,0.,4.8,0.,4.8,,0,0.,4.8,1.,4.8
1979-07-28 09:21:41.490 ,1,0,,0,0.,4.8,0.,4.8,,0,0.,4.8,1.,4.8
1979-07-28 09:21:46.290 ,1,0,,0,3.,4.8,0.,4.8,,0,0.,4.8,3.,4.8
1979-07-28 09:21:51.090 ,1,0,,0,8.,4.8,1.,4.8,,0,0.,4.8,2.,4.8
1979-07-28 09:21:55.890 ,1,0,,0,7.,4.8,0.,4.8,,0,0.,4.8,4.,4.8
1979-07-28 09:22:00.690 ,1,0,,0,11.,4.8,3.,4.8,,0,0.,4.8,5.,4.8
1979-07-28 09:22:05.490 ,1,0,,0,15.,4.8,0.,4.8,,0,0.,4.8,4.,4.8
1979-07-28 09:22:10.290 ,1,0,,0,12.,4.8,1.,4.8,,0,0.,4.8,4.,4.8
1979-07-28 09:22:15.090 ,1,0,,0,0.,4.8,0.,4.8,,0,0.,4.8,1.,4.8
1979-07-28 09:22:19.890 ,1,0,,0,0.,4.8,0.,4.8,,0,0.,4.8,2.,4.8
1979-07-28 09:22:24.690 ,0,0,,0,0.,4.8,0.,4.8,,0,0.,4.8,10.,4.8
1979-07-28 09:22:29.490 ,0,0,,0,0.,4.8,0.,4.8,,0,0.,4.8,2.,4.8
1979-07-28 09:22:34.290 ,0,0,,0,3.,4.8,0.,4.8,,0,0.,4.8,6.,4.8
1979-07-28 09:22:39.090 ,0,0,,0,8.,4.8,0.,4.8,,0,0.,4.8,6.,4.8
1979-07-28 09:22:43.890 ,0,0,,0,7.,4.8,2.,4.8,,0,0.,4.8,4.,4.8
1979-07-28 09:22:48.690 ,0,0,,0,9.,4.8,1.,4.8,,0,0.,4.8,2.,4.8
1979-07-28 09:22:53.490 ,0,0,,0,10.,4.8,0.,4.8,,0,0.,4.8,4.,4.8
1979-07-28 09:22:58.290 ,0,0,,0,2.,4.8,0.,4.8,,0,0.,4.8,7.,4.8
1979-07-28 09:23:03.090 ,0,0,,0,0.,4.8,0.,4.8,,0,0.,4.8,5.,4.8
1979-07-28 09:23:07.890 ,0,0,,0,0.,4.8,0.,4.8,,0,0.,4.8,6.,4.8
1979-07-28 09:23:12.690 ,0,0,,0,0.,4.8,0.,4.8,,0,0.,4.8,4.,4.8
1979-07-28 09:23:17.490 ,0,0,,0,0.,4.8,0.,4.8,,0,0.,4.8,2.,4.8
1979-07-28 09:23:22.290 ,0,0,,0,2.,4.8,0.,4.8,,0,0.,4.8,4.,4.8
1979-07-28 09:23:27.090 ,0,0,,0,7.,4.8,0.,4.8,,0,0.,4.8,4.,4.8
1979-07-28 09:23:31.890 ,0,0,,0,3.,4.8,0.,4.8,,0,0.,4.8,3.,4.8
1979-07-28 09:23:36.690 ,0,0,,0,6.,4.8,0.,4.8,,0,0.,4.8,1.,4.8
1979-07-28 09:23:41.490 ,0,0,,0,8.,4.8,0.,4.8,,0,0.,4.8,2.,4.8
1979-07-28 09:23:46.290 ,0,0,,0,4.,4.8,0.,4.8,,0,0.,4.8,7.,4.8
1979-07-28 09:23:51.090 ,0,0,,0,0.,4.8,0.,4.8,,0,0.,4.8,6.,4.8
1979-07-28 09:23:55.890 ,0,0,,0,0.,4.8,0.,4.8,,0,0.,4.8,4.,4.8
1979-07-28 09:24:00.690 ,1,0,,0,0.,4.8,0.,4.8,,0,0.,4.8,4.,4.8
1979-07-28 09:24:05.490 ,1,0,,0,0.,4.8,0.,4.8,,0,0.,4.8,5.,4.8
1979-07-28 09:24:10.290 ,1,0,,0,1.,4.8,0.,4.8,,0,0.,4.8,6.,4.8
1979-07-28 09:24:15.090 ,1,0,,0,10.,4.8,1.,4.8,,0,0.,4.8,9.,4.8
1979-07-28 09:24:19.890 ,1,0,,0,4.,4.8,0.,4.8,,0,0.,4.8,2.,4.8
1979-07-28 09:24:24.690 ,1,0,,0,15.,4.8,0.,4.8,,0,0.,4.8,7.,4.8
1979-07-28 09:24:29.490 ,1,0,,0,12.,4.8,0.,4.8,,0,0.,4.8,3.,4.8
1979-07-28 09:24:34.290 ,1,0,,0,7.,4.8,0.,4.8,,0,0.,4.8,6.,4.8
1979-07-28 09:24:39.090 ,1,0,,0,0.,4.8,0.,4.8,,0,0.,4.8,5.,4.8
1979-07-28 09:24:43.890 ,1,0,,0,0.,4.8,0.,4.8,,0,0.,4.8,8.,4.8
1979-07-28 09:24:48.690 ,2,0,,0,0.,4.8,0.,4.8,,0,0.,4.8,4.,4.8
1979-07-28 09:24:53.490 ,2,0,,0,0.,4.8,0.,4.8,,0,0.,4.8,3.,4.8
1979-07-28 09:24:58.290 ,2,0,,0,1.,4.8,0.,4.8,,0,0.,4.8,4.,4.8
1979-07-28 09:25:03.090 ,2,0,,0,8.,4.8,0.,4.8,,0,0.,4.8,1.,4.8
1979-07-28 09:25:07.890 ,2,0,,0,5.,4.8,0.,4.8,,0,0.,4.8,3.,4.8
1979-07-28 09:25:12.690 ,2,0,,0,10.,4.8,0.,4.8,,0,0.,4.8,5.,4.8
1979-07-28 09:25:17.490 ,2,0,,0,11.,4.8,1.,4.8,,0,0.,4.8,5.,4.8
1979-07-28 09:25:22.290 ,2,0,,0,7.,4.8,1.,4.8,,0,0.,4.8,3.,4.8
1979-07-28 09:25:27.090 ,2,0,,0,0.,4.8,0.,4.8,,0,0.,4.8,3.,4.8
1979-07-28 09:25:31.890 ,2,0,,0,0.,4.8,0.,4.8,,0,0.,4.8,2.,4.8
1979-07-28 09:25:36.690 ,3,0,,0,0.,4.8,0.,4.8,,0,0.,4.8,5.,4.8
1979-07-28 09:25:41.490 ,3,0,,0,0.,4.8,0.,4.8,,0,0.,4.8,8.,4.8
1979-07-28 09:25:46.290 ,3,0,,0,1.,4.8,0.,4.8,,0,0.,4.8,3.,4.8
1979-07-28 09:25:51.090 ,3,0,,0,5.,4.8,0.,4.8,,0,0.,4.8,0.,4.8
1979-07-28 09:25:55.890 ,3,0,,0,12.,4.8,0.,4.8,,0,0.,4.8,3.,4.8
1979-07-28 09:26:00.690 ,3,0,,0,6.,4.8,1.,4.8,,0,0.,4.8,3.,4.8
1979-07-28 09:26:05.490 ,3,0,,0,9.,4.8,0.,4.8,,0,0.,4.8,2.,4.8
1979-07-28 09:26:10.290 ,3,0,,0,7.,4.8,0.,4.8,,0,0.,4.8,5.,4.8
1979-07-28 09:26:15.090 ,3,0,,0,0.,4.8,0.,4.8,,0,0.,4.8,2.,4.8
1979-07-28 09:26:19.890 ,3,0,,0,0.,4.8,1.,4.8,,0,0.,4.8,4.,4.8
1979-07-28 09:26:24.690 ,4,0,,0,0.,4.8,0.,4.8,,0,1.,4.8,1.,4.8
1979-07-28 09:26:29.490 ,4,0,,0,0.,4.8,0.,4.8,,0,0.,4.8,3.,4.8
1979-07-28 09:26:34.290 ,4,0,,0,1.,4.8,0.,4.8,,0,0.,4.8,2.,4.8
1979-07-28 09:26:39.090 ,4,0,,0,8.,4.8,1.,4.8,,0,0.,4.8,1.,4.8
1979-07-28 09:26:43.890 ,4,0,,0,13.,4.8,0.,4.8,,0,0.,4.8,1.,4.8
1979-07-28 09:26:48.690 ,4,0,,0,4.,4.8,0.,4.8,,0,0.,4.8,4.,4.8
1979-07-28 09:26:53.490 ,4,0,,0,12.,4.8,0.,4.8,,0,0.,4.8,0.,4.8
1979-07-28 09:26:58.290 ,4,0,,0,5.,4.8,0.,4.8,,0,0.,4.8,2.,4.8
1979-07-28 09:27:03.090 ,4,0,,0,0.,4.8,0.,4.8,,0,0.,4.8,1.,4.8
1979-07-28 09:27:07.890 ,4,0,,0,0.,4.8,0.,4.8,,0,0.,4.8,1.,4.8
1979-07-28 09:27:12.690 ,5,0,,0,0.,4.8,0.,4.8,,0,0.,4.8,3.,4.8
1979-07-28 09:27:17.490 ,5,0,,0,0.,4.8,0.,4.8,,0,0.,4.8,1.,4.8
1979-07-28 09:27:22.290 ,5,0,,0,1.,4.8,1.,4.8,,0,0.,4.8,1.,4.8
1979-07-28 09:27:27.090 ,5,0,,0,2.,4.8,0.,4.8,,0,0.,4.8,3.,4.8
1979-07-28 09:27:31.890 ,5,0,,0,7.,4.8,0.,4.8,,0,0.,4.8,1.,4.8
1979-07-28 09:27:36.690 ,5,0,,0,4.,4.8,0.,4.8,,0,0.,4.8,4.,4.8
1979-07-28 09:27:41.490 ,5,0,,0,7.,4.8,0.,4.8,,0,0.,4.8,1.,4.8
1979-07-28 09:27:46.290 ,5,0,,0,10.,4.8,1.,4.8,,0,0.,4.8,2.,4.8
1979-07-28 09:27:51.090 ,5,0,,0,0.,4.8,0.,4.8,,0,0.,4.8,3.,4.8
1979-07-28 09:27:55.890 ,5,0,,0,0.,4.8,0.,4.8,,0,0.,4.8,1.,4.8
1979-07-28 09:28:00.690 ,6,0,,0,0.,4.8,0.,4.8,,0,0.,4.8,0.,4.8
1979-07-28 09:28:05.490 ,6,0,,0,0.,4.8,0.,4.8,,0,0.,4.8,1.,4.8
1979-07-28 09:28:10.290 ,6,0,,0,5.,4.8,0.,4.8,,0,0.,4.8,2.,4.8
1979-07-28 09:28:15.090 ,6,0,,0,8.,4.8,1.,4.8,,0,0.,4.8,2.,4.8
1979-07-28 09:28:19.890 ,6,0,,0,13.,4.8,1.,4.8,,0,0.,4.8,2.,4.8
1979-07-28 09:28:24.690 ,6,0,,0,10.,4.8,0.,4.8,,0,0.,4.8,2.,4.8
1979-07-28 09:28:29.490 ,6,0,,0,9.,4.8,0.,4.8,,0,0.,4.8,4.,4.8
1979-07-28 09:28:34.290 ,6,0,,0,9.,4.8,0.,4.8,,0,0.,4.8,5.,4.8
1979-07-28 09:28:39.090 ,6,0,,0,0.,4.8,0.,4.8,,0,0.,4.8,2.,4.8
1979-07-28 09:28:43.890 ,6,0,,0,0.,4.8,0.,4.8,,0,0.,4.8,1.,4.8
1979-07-28 09:28:48.690 ,7,0,,0,0.,4.8,0.,4.8,,0,0.,4.8,2.,4.8
1979-07-28 09:28:53.490 ,7,0,,0,0.,4.8,0.,4.8,,0,0.,4.8,0.,4.8
1979-07-28 09:28:58.290 ,7,0,,0,1.,4.8,0.,4.8,,0,0.,4.8,0.,4.8
1979-07-28 09:29:03.090 ,7,0,,0,13.,4.8,0.,4.8,,0,0.,4.8,0.,4.8
1979-07-28 09:29:07.890 ,7,0,,0,12.,4.8,0.,4.8,,0,0.,4.8,0.,4.8
1979-07-28 09:29:12.690 ,7,0,,0,11.,4.8,0.,4.8,,0,0.,4.8,0.,4.8
1979-07-28 09:29:17.490 ,7,0,,0,8.,4.8,0.,4.8,,0,0.,4.8,0.,4.8
1979-07-28 09:29:22.290 ,7,0,,0,11.,4.8,0.,4.8,,0,0.,4.8,0.,4.8
1979-07-28 09:29:27.090 ,7,0,,0,1.,4.8,0.,4.8,,0,0.,4.8,0.,4.8
1979-07-28 09:29:31.890 ,7,0,,0,0.,4.8,0.,4.8,,0,0.,4.8,0.,4.8
1979-07-28 09:29:36.690 ,7,0,,0,0.,4.8,0.,4.8,,0,0.,4.8,0.,4.8
1979-07-28 09:29:41.490 ,7,0,,0,0.,4.8,0.,4.8,,0,0.,4.8,0.,4.8
1979-07-28 09:29:46.290 ,7,0,,0,1.,4.8,0.,4.8,,0,0.,4.8,1.,4.8
1979-07-28 09:29:51.090 ,7,0,,0,12.,4.8,0.,4.8,,0,0.,4.8,0.,4.8
1979-07-28 09:29:55.890 ,7,0,,0,8.,4.8,0.,4.8,,0,0.,4.8,0.,4.8
1979-07-28 09:30:00.690 ,7,0,,0,8.,4.8,0.,4.8,,0,0.,4.8,0.,4.8
1979-07-28 09:30:05.490 ,7,0,,0,15.,4.8,0.,4.8,,0,0.,4.8,0.,4.8